Regional Weather Roundup
Issued by NWS Albany, NY

Current Version | Previous Version | Text Only | Print | Product List | Glossary On
Versions: 1 2 3 4 5 6 7 8 9 10 11 12 13 14 15 16 17 18 19 20 21 22 23 24 25 26 27 28 29 30 31 32 33 34 35 36 37 38 39 40 41 42 43 44 45 46 47 48 49 50
000
ASUS41 KALY 122210
RWRALY

NEW YORK STATE HOURLY WEATHER ROUNDUP
NATIONAL WEATHER SERVICE ALBANY NY
500 PM EST TUE DEC 12 2017

NOTE: "FAIR" INDICATES FEW OR NO CLOUDS BELOW 12,000 FEET WITH NO
SIGNIFICANT WEATHER AND/OR NO OBSTRUCTIONS TO VISIBILITY.

NYZ032-033-038>043-046>054-057>066-NYZ062>081-082-084-122300-
EAST


CITY           SKY/WX    TMP DP  RH WIND       PRES   REMARKS
ALBANY         LGT SNOW  35  30  82 W15       29.42R WCI  25
GLENS FALLS    LGT SNOW  32  32 100 CALM      29.39S FOG
POUGHKEEPSIE   CLOUDY    38  36  92 SW3       29.39F
NEWBURGH       CLOUDY    37  36  93 W12       29.41F FOG     WCI  30
MONTGOMERY     CLOUDY    38  33  82 W7        29.40S WCI  33
WHITE PLAINS   MOCLDY    40  37  89 W6        29.39F
ISLIP          CLOUDY    43  36  76 NW14      29.39R
NEW YORK CITY  CLOUDY    45  33  63 W20       29.42R
CENTRAL PARK   CLOUDY    43  33  68 W8        29.44S
$$

NYZ005>009-017-018-044>046-055-056-122300-
CENTRAL


CITY           SKY/WX    TMP DP  RH WIND       PRES   REMARKS
FULTON         CLOUDY    27  18  69 W13G24    29.54R WCI  16
SYRACUSE       CLOUDY    26  18  71 W18       29.54R WCI  13
ROME           MIX PCPN  28  20  71 W18G25    29.52R WCI  15
ELMIRA         CLOUDY    27   8  44 W16G26    29.55R WCI  15
BINGHAMTON     FLURRIES  24  17  74 NW9       29.46R WCI  14
$$

NYZ026>034-041>043-087-122300-
NORTH


CITY           SKY/WX    TMP DP  RH WIND       PRES   REMARKS
WATERTOWN      CLOUDY    23  21  92 NW6       29.52R WCI  16
FORT DRUM      NOT AVBL
OGDENSBURG     LGT SNOW  20  17  90 NW6       29.49R WCI  12
MASSENA        LGT SNOW  20  18  92 CALM      29.49R FOG
SARANAC LAKE   LGT SNOW  29  29 100 SW5       29.33S FOG     WCI  24
PLATTSBURGH    LGT SNOW  33  31  92 CALM      29.39F FOG
$$

NYZ001>004-010>016-019>021-085-122300-
WEST


CITY           SKY/WX    TMP DP  RH WIND       PRES   REMARKS
NIAGARA FALLS  PTCLDY    19   5  54 W22G29    29.62S WCI   2
BUFFALO        PTCLDY    18   8  65 W20G31    29.62R WCI   2
DUNKIRK        LGT SNOW  19  11  70 W14G29    29.68R VSB 1   WCI   6
JAMESTOWN      SNOW      13  10  88 W16       29.62R VSB 1/2 WCI  -3
WELLSVILLE     LGT SNOW  17   9  70 W14G24    29.53R WCI   3
ROCHESTER      PTCLDY    22  11  62 W15       29.59R WCI   9
PENN YAN       CLOUDY    23  10  57 W18G25    29.55R WCI   9
$$

             KEY
       WCI = WIND CHILL INDEX
       VSB = VISIBILITY
       HX  = HEAT INDEX
$$



USA.gov is the U.S. government's official web portal to all federal, state and local government web resources and services.